Location: Brachbach
(49.1847°N, 9.7240°E)
Time: 04:33:24
(UTC+00:00)

STARS - Pass Details

Date: 17 March 2026
Orbit: 575 x 588 km, 98.2° (Epoch: 15 April)

Event Time Altitude Azimuth Distance (km) Brightness Sun altitude
Rises 02:25:57 0° 5° (N) 2,801 ? -29.2°
Reaches altitude 10° 02:28:20 10° 353° (N) 1,897 ? -28.9°
Enters shadow 02:29:09 15° 346° (NNW) 1,616 ? -28.8°
